DW1736 Weather Reports


Display with metric or nautical units.
time (UTC)temp
F
wind
direction
speed
MPH
gust
MPH
rain 1hr
in
rain 24hr
in
rain mn
in
humidity
%
barometer
mb
20260505024526 63 0.0 0.0 0.00 0.00 0.00 59 1011.8
20260505023538 63 0.0 0.0 0.00 0.00 0.00 58 1011.7
20260505022539 64 0.0 0.0 0.00 0.00 0.00 57 1011.6
20260505021538 65 0.0 0.0 0.00 0.00 0.00 56 1011.5
20260505020526 66 0.0 0.0 0.00 0.00 0.00 55 1011.5
20260505015525 66 0.0 0.0 0.00 0.00 0.00 54 1011.4
20260505014538 66 0.0 0.0 0.00 0.00 0.00 53 1011.2
20260505013537 65 0.0 0.0 0.00 0.00 0.00 54 1011.0
20260505012538 65 0.0 0.0 0.00 0.00 0.00 53 1011.0
20260505011538 65 0.0 0.0 0.00 0.00 0.00 53 1011.1
20260505010525 66 0.0 0.0 0.00 0.00 0.00 51 1011.1
20260505005538 66 0.0 0.0 0.00 0.00 0.00 48 1011.0
20260505004525 66 0.0 0.0 0.00 0.00 0.00 46 1011.0
20260505003538 67 0.0 0.0 0.00 0.00 0.00 45 1010.9
20260505002538 68 0.0 0.0 0.00 0.00 0.00 43 1010.8
20260505001538 68 0.0 0.0 0.00 0.00 0.00 42 1010.6
20260505000538 70 0.0 0.0 0.00 0.00 0.00 41 1010.6
20260504235525 71 0.0 0.0 0.00 0.00 0.00 38 1010.6
20260504234525 73 0.0 0.0 0.00 0.00 0.00 35 1010.5
20260504233525 73 0.0 2.0 0.00 0.00 0.00 33 1010.5
20260504232538 74 0.0 0.0 0.00 0.00 0.00 33 1010.4
20260504231537 74 0.0 0.0 0.00 0.00 0.00 32 1010.4
20260504230537 75 0.0 0.0 0.00 0.00 0.00 30 1010.3
20260504225525 77 0.0 1.0 0.00 0.00 0.00 29 1010.1
20260504224545 78 0.0 3.0 0.00 0.00 0.00 29 1010.2
20260504223537 79 0.0 2.0 0.00 0.00 0.00 28 1010.3
20260504222558 79 0.0 0.0 0.00 0.00 0.00 29 1010.3
20260504221538 79 0.0 1.0 0.00 0.00 0.00 31 1010.4
20260504220537 79 0.0 2.0 0.00 0.00 0.00 30 1010.4
20260504215525 79 0.0 2.0 0.00 0.00 0.00 30 1010.4
20260504214537 79 0.0 2.0 0.00 0.00 0.00 29 1010.4
20260504213544 79 270 1.0 2.0 0.00 0.00 0.00 30 1010.5
20260504212537 79 0.0 2.0 0.00 0.00 0.00 29 1010.6
20260504211559 79 270 1.0 9.0 0.00 0.00 0.00 28 1010.6
20260504210537 79 248 1.0 4.0 0.00 0.00 0.00 27 1010.7
20260504205539 78 248 1.0 7.0 0.00 0.00 0.00 28 1010.7
20260504204539 78 248 1.0 4.0 0.00 0.00 0.00 27 1010.8
20260504203539 77 270 1.0 3.0 0.00 0.00 0.00 28 1010.9
20260504202601 77 270 1.0 4.0 0.00 0.00 0.00 27 1010.8
20260504201527 78 270 1.0 3.0 0.00 0.00 0.00 28 1011.0
20260504200539 78 0.0 3.0 0.00 0.00 0.00 27 1011.0
20260504195539 78 248 1.0 4.0 0.00 0.00 0.00 27 1011.3
20260504194539 78 248 1.0 4.0 0.00 0.00 0.00 26 1011.3
20260504193539 77 270 1.0 11.0 0.00 0.00 0.00 28 1011.5
20260504192539 77 0.0 2.0 0.00 0.00 0.00 27 1011.6
20260504191559 76 0.0 3.0 0.00 0.00 0.00 27 1011.6
20260504190526 76 0.0 2.0 0.00 0.00 0.00 29 1011.8
20260504185526 77 0.0 2.0 0.00 0.00 0.00 27 1011.8
20260504184539 79 270 1.0 6.0 0.00 0.00 0.00 27 1012.0
20260504183559 79 248 1.0 6.0 0.00 0.00 0.00 27 1012.1
20260504182619 78 0.0 2.0 0.00 0.00 0.00 27 1012.2
20260504181539 77 248 1.0 9.0 0.00 0.00 0.00 26 1012.3
20260504180539 77 270 1.0 5.0 0.00 0.00 0.00 27 1012.5
20260504175526 77 225 1.0 6.0 0.00 0.00 0.00 26 1012.5
20260504174526 76 225 1.0 4.0 0.00 0.00 0.00 25 1012.6
20260504173639 75 248 1.0 9.0 0.00 0.00 0.00 28 1012.7
20260504172539 76 248 2.0 16.0 0.00 0.00 0.00 26 1012.8
20260504171539 75 270 1.0 7.0 0.00 0.00 0.00 27 1012.9
20260504170526 75 270 2.0 6.0 0.00 0.00 0.00 31 1013.0
20260504150526 69 248 1.0 6.0 0.00 0.00 0.00 43 1014.1
20260504140538 64 0.0 2.0 0.00 0.00 0.00 52 1014.5
20260504130538 60 270 1.0 6.0 0.00 0.00 0.00 60 1014.9
20260504110538 52 0.0 0.0 0.00 0.00 0.00 77 1015.3
20260504100537 50 0.0 0.0 0.00 0.00 0.00 79 1015.3
20260504081524 50 0.0 0.0 0.00 0.00 0.00 84 1015.6
20260504080537 50 0.0 1.0 0.00 0.00 0.00 84 1015.6
20260504050527 46 0.0 0.0 0.00 0.00 0.00 81 1016.0
20260504045540 44 0.0 0.0 0.00 0.00 0.00 84 1015.9
20260504044539 43 0.0 0.0 0.00 0.00 0.00 86 1015.9
20260504043540 42 0.0 0.0 0.00 0.00 0.00 86 1015.9
20260504042540 43 0.0 0.0 0.00 0.00 0.00 85 1015.9
20260504041540 43 0.0 0.0 0.00 0.00 0.00 85 1015.9
20260504040526 43 0.0 0.0 0.00 0.00 0.00 84 1016.0
20260504035539 43 0.0 0.0 0.00 0.00 0.00 84 1016.0
20260504034538 43 0.0 0.0 0.00 0.00 0.00 84 1015.9
20260504033538 43 0.0 0.0 0.00 0.00 0.00 85 1015.7
20260504032525 44 0.0 0.0 0.00 0.00 0.00 84 1015.7
20260504031526 44 0.0 0.0 0.00 0.00 0.00 83 1015.8
20260504030538 44 0.0 0.0 0.00 0.00 0.00 82 1015.8
20260504025559 44 0.0 0.0 0.00 0.00 0.00 81 1015.7